Weather in Şahbuz

Azerbaijan     39°24′32″N   45°34′39″E
temp.,
°C
wind,
m/s
gust,
m/s
humid.,
%
clouds,
%
prec.,
mm/h
press.,
hPa
HPBL,
m
21 june, mon
mon2101:00+17ne54530 0.0 101359
04:00+16ene22480 0.0 101326
07:00+19ene22430 0.0 101360
10:00+25sse22310 0.0 1012907
13:00+28s34260 0.0 10111802
16:00+30s38222 0.0 10093215
19:00+26ene56380 0.0 1010489
22:00+19ne55570 0.0 101370
22 june, tue
tue2201:00+18ne44520 0.0 101241
04:00+17ene22530 0.0 101226
07:00+19ene22490 0.0 101483
10:00+25sse22300 0.0 1012816
13:00+28ssw46240 0.0 10111552
16:00+30ssw39180 0.0 10092960
19:00+27e56270 0.0 1009452
22:00+19ene55350 0.0 101267
23 june, wed
wed2301:00+18ene33330 0.0 101237
04:00+16ene23340 0.0 101328
07:00+19e23340 0.0 101350
10:00+25sse22210 0.0 1012706
13:00+29ssw46180 0.0 10101414
16:00+31s37150 0.0 10082449
19:00+26ene56270 0.0 1009370
22:00+19ne66300 0.0 101270
24 june, thu
thu2401:00+18ene33280 0.0 101135
04:00+17ene22300 0.0 101224
07:00+20ene33320 0.0 101344
10:00+26sse23200 0.0 1011806
13:00+29ssw46170 0.0 10101440
16:00+31sse28120 0.0 10082868
19:00+26ene562737 0.0 1009352
22:00+20ne553232 0.0 101165
25 june, fri
fri2501:00+20ne33294 0.0 101042
04:00+17e33316 0.0 101125
07:00+19ene223236 0.0 101346
10:00+26sse23200 0.0 1011791
13:00+29ssw46150 0.0 10091312
16:00+31ssw48120 0.0 10072517
19:00+29e45200 0.0 1007219
22:00+20ne55280 0.0 101160